Weather Service Report


202 
ASUS45 KREV 082010
RWRNV 
NEVADA REGIONAL WEATHER ROUNDUP
NATIONAL WEATHER SERVICE RENO NV
1200 PM PST THU DEC 08 2016

NOTE: "FAIR" INDICATES FEW OR NO CLOUDS BELOW 12,000 FEET WITH NO
SIGNIFICANT WEATHER AND/OR OBSTRUCTIONS TO VISIBILITY.

NVZ001-003-004-082100-
WESTERN NEVADA
  
CITY           SKY/WX    TMP DP  RH WIND       PRES   REMARKS
RENO           PTSUNNY   39  32  76 CALM      30.03F                  
CARSON CITY    CLOUDY    50  36  57 SE7       30.05F                  
MINDEN         CLOUDY    50  36  57 S17G30    30.07R                  
PYRAMID LAKE     N/A     34 N/A N/A SE18        N/A                   
FALLON         PTSUNNY   36  26  67 VRB3      30.07F                  
LOVELOCK       CLOUDY    31  24  75 CALM      30.08F                  
HAWTHORNE        N/A    N/A N/A N/A MISG        N/A                   
$$

NVZ002-CAZ072-073-082100-
NORTHERN AND CENTRAL SIERRA
  
CITY           SKY/WX    TMP DP  RH WIND       PRES   REMARKS
S. LAKE TAHOE  LGT RAIN  45  36  70 S17G31    30.09S                  
TRUCKEE        CLOUDY    43  37  81 S7        30.10F                  
SQUAW VLY 8000   N/A     34  34 100 SW22        N/A                   
SUSANVILLE     CLOUDY    32  28  86 NE3       30.04F                  
MAMMOTH LAKES  CLOUDY    40  32  71 SE9       30.16F                  
BRIDGEPORT       N/A     49  31  49 SW21G36   30.07F                  
$$

NVZ030-031-036-082100-
NORTHERN NEVADA
  
CITY           SKY/WX    TMP DP  RH WIND       PRES   REMARKS
ELKO           LGT SNOW  25  20  81 NE7       30.08F                  
WINNEMUCCA     NOT AVBL                                               
WENDOVER       CLOUDY    21  16  79 E5        30.21F                  
$$

NVZ035-037-082100-
CENTRAL NEVADA
  
CITY           SKY/WX    TMP DP  RH WIND       PRES   REMARKS
ELY            CLOUDY    37  13  37 SW7       30.12F                  
EUREKA           N/A     34  21  59 SW7       30.09F                  
$$

NVZ013-014-082100-
SOUTH CENTRAL NEVADA
  
CITY           SKY/WX    TMP DP  RH WIND       PRES   REMARKS
TONOPAH        NOT AVBL                                               
$$

NVZ017-020-022-082100-
SOUTHERN NEVADA
  
CITY           SKY/WX    TMP DP  RH WIND       PRES   REMARKS
LAS VEGAS      NOT AVBL                                               
N. LAS VEGAS   MOSUNNY   49   7  18 S5        30.25F                  
NELLIS AFB     MOSUNNY   51  10  19 NE3       30.25F                  
HENDERSON      PTSUNNY   49   8  19 CALM      30.27F                  
MERCURY        SUNNY     48   7  18 VRB5      30.21F                  
$$
  

Return to Home page


Western Regional Climate Center, wrcc@dri.edu